World > North America > United States > Ohio   City of Troy, Ohio

Hourly Troy, OH Regional Weather

Feedback E-mail the Weather

Latest News

Troy, OH Weather Maps

°F °C°F °C
Troy Weather Map
UTC Time: 5/25/2022, 07:14
Your Time:

Troy, OH Regional Weather

Expires:202205250800;;543491
ASUS41 KCLE 250702
RWRCLE
OHIO REGIONAL WEATHER ROUNDUP
NATIONAL WEATHER SERVICE CLEVELAND, OH
300 AM EDT WED MAY 25 2022

NOTE: "FAIR" INDICATES FEW OR NO CLOUDS BELOW 12,000 FEET WITH NO
SIGNIFICANT WEATHER AND/OR OBSTRUCTIONS TO VISIBILITY.


OHZ042-051>053-060>062-070>072-077>081-250800-
  SOUTHWEST OHIO
  
CITY           SKY/WX    TMP DP  RH WIND       PRES   REMARKS
CINC-COVINGTON CLOUDY    65  61  87 SE12      30.06F                  
CINC-LUNKEN    CLOUDY    62  61  96 NE5       30.08F                  
HAMILTON       MOCLDY    64  59  83 E6        30.09F                  
DAYTON         MOCLDY    63  59  87 E10       30.10F                  
WRIGHT-PAT AFB CLOUDY    62  58  88 E6        30.07F                  
DAYTON GENERAL MOCLDY    63  58  83 E7        30.09F                  
WILMINGTON     MOCLDY    63  59  87 SE7       30.10F                  
$$


SKY/WX - Weather  TMP - Temperature  DP - Dew Point  RH - Humidity
WIND - Wind Direction/Speed PRES - Barometric Pressure VSB - Visibility
WCI - Wind Chill Index E13G22 Wind - East Wind 13 mph/Gusts of 22 mph

Trending Headlines

Troy Radar Loop



Troy Quick Facts


National Two Day Weather Forecast


E-mail the Troy Weather Forecast

Voice your opinion or tell us about page issues...